QPF
0.03 0.02 0.03 0.02 0.02 0.01 0.01 0.02 0.03 0.04 0.03 0.03 0.04 0.04 0.04 0.05 0.06 0.04 0.02 0.02 0.02 0.02 0.01 0.01 0.00 0.00 0.00 0.00 0.01 0.01 0.01 0.00 0.00 0.00 0.00 0.01 0.01 0.01 0.01 0.00 0.01 0.00 0.00
0.03 0.03 0.03 0.03 0.04 0.02 0.01 0.02 0.03 0.03 0.02 0.02 0.03 0.03 0.04 0.05 0.06 0.05 0.03 0.02 0.02 0.02 0.01 0.01 0.01 0.01 0.00 0.01 0.02 0.02 0.02 0.01 0.01 0.00 0.01 0.01 0.01 0.01 0.01 0.00 0.01 0.00 0.00
0.03 0.02 0.03 0.03 0.03 0.02 0.02 0.03 0.03 0.04 0.03 0.03 0.03 0.03 0.03 0.04 0.05 0.04 0.03 0.02 0.01 0.02 0.02 0.02 0.02 0.02 0.01 0.01 0.02 0.02 0.03 0.02 0.02 0.01 0.01 0.01 0.01 0.01 0.01 0.01 0.01 0.00 0.00
0.02 0.02 0.02 0.02 0.03 0.03 0.02 0.02 0.03 0.04 0.03 0.03 0.04 0.04 0.02 0.02 0.03 0.03 0.03 0.03 0.01 0.01 0.02 0.02 0.02 0.02 0.02 0.02 0.02 0.02 0.03 0.03 0.02 0.02 0.02 0.01 0.01 0.01 0.01 0.01 0.01 0.01 0.01
0.02 0.02 0.02 0.03 0.05 0.04 0.04 0.03 0.03 0.02 0.02 0.02 0.03 0.05 0.03 0.02 0.03 0.03 0.04 0.03 0.02 0.02 0.01 0.02 0.02 0.02 0.02 0.02 0.03 0.04 0.05 0.04 0.04 0.03 0.03 0.03 0.02 0.02 0.02 0.02 0.02 0.02 0.01
0.02 0.01 0.02 0.03 0.04 0.05 0.04 0.03 0.03 0.02 0.02 0.04 0.05 0.07 0.05 0.03 0.04 0.04 0.05 0.04 0.03 0.03 0.02 0.01 0.01 0.02 0.03 0.03 0.04 0.05 0.06 0.05 0.04 0.04 0.05 0.05 0.04 0.03 0.02 0.02 0.02 0.01 0.01
0.04 0.03 0.02 0.03 0.03 0.05 0.04 0.02 0.02 0.02 0.02 0.03 0.05 0.08 0.06 0.06 0.05 0.04 0.05 0.05 0.04 0.04 0.04 0.03 0.02 0.01 0.02 0.02 0.03 0.03 0.04 0.04 0.05 0.04 0.04 0.04 0.04 0.04 0.03 0.02 0.02 0.02 0.02
0.04 0.03 0.03 0.03 0.03 0.04 0.04 0.03 0.01 0.02 0.02 0.02 0.04 0.04 0.04 0.04 0.05 0.05 0.06 0.06 0.06 0.06 0.06 0.05 0.02 0.02 0.02 0.01 0.01 0.02 0.04 0.03 0.03 0.03 0.02 0.02 0.02 0.02 0.02 0.02 0.02 0.02 0.02
0.04 0.04 0.03 0.04 0.03 0.03 0.03 0.03 0.02 0.03 0.02 0.03 0.03 0.02 0.01 0.01 0.01 0.03 0.04 0.05 0.05 0.05 0.04 0.05 0.03 0.03 0.02 0.02 0.01 0.01 0.02 0.02 0.04 0.03 0.03 0.02 0.02 0.02 0.02 0.03 0.03 0.02 0.03
0.05 0.05 0.04 0.05 0.05 0.04 0.02 0.03 0.02 0.03 0.03 0.03 0.02 0.01 0.01 0.01 0.00 0.01 0.02 0.05 0.05 0.04 0.04 0.04 0.05 0.04 0.03 0.02 0.01 0.02 0.02 0.02 0.03 0.04 0.04 0.04 0.03 0.03 0.02 0.02 0.02 0.02 0.02
0.07 0.06 0.06 0.06 0.06 0.04 0.03 0.03 0.03 0.03 0.02 0.01 0.01 0.01 0.01 0.01 0.01 0.01 0.01 0.03 0.05 0.05 0.05 0.06 0.06 0.04 0.03 0.02 0.01 0.02 0.02 0.01 0.01 0.02 0.03 0.03 0.03 0.03 0.02 0.02 0.03 0.03 0.03
0.07 0.06 0.07 0.07 0.07 0.05 0.03 0.02 0.02 0.03 0.03 0.02 0.01 0.01 0.01 0.01 0.01 0.00 0.01 0.01 0.02 0.02 0.02 0.03 0.03 0.04 0.03 0.02 0.01 0.01 0.02 0.02 0.01 0.01 0.01 0.01 0.01 0.02 0.02 0.02 0.02 0.02 0.02
0.05 0.04 0.05 0.05 0.05 0.04 0.04 0.04 0.04 0.02 0.02 0.02 0.02 0.01 0.01 0.01 0.01 0.00 0.01 0.01 0.01 0.01 0.02 0.02 0.03 0.03 0.02 0.02 0.01 0.01 0.03 0.03 0.02 0.01 0.01 0.01 0.01 0.01 0.01 0.01 0.01 0.01 0.01
0.04 0.04 0.04 0.04 0.03 0.04 0.05 0.07 0.06 0.03 0.02 0.02 0.01 0.01 0.01 0.01 0.01 0.01 0.00 0.01 0.01 0.01 0.01 0.02 0.02 0.02 0.02 0.02 0.03 0.05 0.04 0.03 0.02 0.01 0.01 0.01 0.01 0.01 0.00 0.01 0.01 0.00 0.00
0.07 0.08 0.06 0.04 0.06 0.07 0.08 0.09 0.08 0.07 0.05 0.03 0.03 0.03 0.02 0.01 0.01 0.01 0.01 0.01 0.01 0.01 0.01 0.01 0.02 0.02 0.03 0.03 0.03 0.07 0.07 0.03 0.02 0.01 0.01 0.01 0.01 0.01 0.01 0.01 0.01 0.00 0.00
0.07 0.09 0.10 0.07 0.08 0.09 0.09 0.10 0.09 0.09 0.09 0.07 0.05 0.05 0.03 0.02 0.02 0.02 0.01 0.01 0.01 0.01 0.01 0.01 0.02 0.03 0.04 0.04 0.03 0.02 0.02 0.02 0.01 0.01 0.01 0.01 0.01 0.01 0.00 0.00 0.00 0.00 0.00
0.08 0.08 0.09 0.09 0.09 0.10 0.10 0.08 0.09 0.11 0.10 0.09 0.08 0.07 0.05 0.04 0.04 0.03 0.03 0.02 0.02 0.03 0.03 0.02 0.02 0.02 0.04 0.04 0.03 0.03 0.02 0.02 0.02 0.02 0.02 0.01 0.01 0.00 0.00 0.00 0.00 0.00 0.00
0.10 0.10 0.10 0.10 0.10 0.10 0.11 0.10 0.10 0.13 0.14 0.11 0.09 0.08 0.07 0.07 0.07 0.06 0.05 0.04 0.03 0.04 0.04 0.03 0.03 0.02 0.03 0.04 0.04 0.03 0.03 0.02 0.02 0.02 0.01 0.01 0.01 0.01 0.00 0.00 0.00 0.01 0.00
0.11 0.10 0.11 0.10 0.10 0.10 0.12 0.12 0.13 0.15 0.14 0.14 0.12 0.09 0.07 0.08 0.08 0.08 0.07 0.06 0.05 0.05 0.04 0.05 0.06 0.07 0.08 0.08 0.07 0.05 0.04 0.03 0.02 0.02 0.01 0.01 0.01 0.01 0.01 0.01 0.01 0.01 0.01
0.13 0.15 0.14 0.13 0.13 0.14 0.14 0.14 0.15 0.16 0.12 0.11 0.12 0.11 0.09 0.07 0.09 0.10 0.10 0.10 0.11 0.10 0.09 0.08 0.08 0.09 0.12 0.11 0.10 0.09 0.06 0.05 0.04 0.03 0.03 0.03 0.02 0.02 0.02 0.02 0.01 0.01 0.00
0.17 0.17 0.16 0.15 0.15 0.18 0.17 0.15 0.14 0.15 0.14 0.11 0.10 0.11 0.10 0.10 0.10 0.09 0.09 0.10 0.10 0.11 0.12 0.13 0.12 0.11 0.10 0.10 0.11 0.09 0.08 0.07 0.05 0.04 0.04 0.03 0.03 0.03 0.02 0.02 0.01 0.00 0.00
0.18 0.16 0.11 0.11 0.13 0.16 0.19 0.21 0.19 0.19 0.19 0.14 0.13 0.15 0.15 0.13 0.13 0.13 0.13 0.11 0.10 0.10 0.11 0.12 0.11 0.10 0.09 0.08 0.08 0.07 0.06 0.05 0.04 0.02 0.02 0.02 0.01 0.01 0.01 0.01 0.00 0.00 0.00
0.12 0.12 0.10 0.10 0.09 0.12 0.15 0.15 0.15 0.15 0.16 0.15 0.15 0.17 0.16 0.15 0.15 0.13 0.12 0.11 0.10 0.09 0.09 0.09 0.10 0.09 0.07 0.05 0.04 0.04 0.03 0.04 0.03 0.02 0.02 0.01 0.01 0.01 0.01 0.01 0.01 0.00 0.00
0.07 0.10 0.11 0.10 0.13 0.17 0.18 0.16 0.15 0.13 0.14 0.14 0.13 0.12 0.13 0.14 0.13 0.11 0.09 0.07 0.06 0.06 0.05 0.04 0.04 0.05 0.04 0.03 0.02 0.02 0.02 0.02 0.02 0.02 0.02 0.01 0.01 0.01 0.01 0.00 0.00 0.00 0.00
0.06 0.10 0.14 0.15 0.18 0.21 0.22 0.21 0.19 0.17 0.17 0.16 0.16 0.15 0.13 0.13 0.12 0.10 0.07 0.07 0.06 0.06 0.06 0.06 0.06 0.06 0.06 0.05 0.04 0.03 0.03 0.03 0.04 0.04 0.03 0.03 0.02 0.01 0.01 0.00 0.00 0.00 0.00
0.06 0.08 0.11 0.12 0.14 0.16 0.19 0.18 0.15 0.15 0.16 0.16 0.15 0.13 0.12 0.11 0.12 0.12 0.11 0.10 0.09 0.07 0.05 0.05 0.05 0.05 0.04 0.04 0.04 0.03 0.03 0.03 0.04 0.04 0.03 0.03 0.02 0.01 0.01 0.01 0.00 0.00 0.00
MSLP
1017.66 1017.83 1017.92 1017.96 1017.99 1018.06 1018.19 1018.37 1018.59 1018.83 1019.06 1019.25 1019.41 1019.54 1019.66 1019.79 1019.94 1020.13 1020.34 1020.57 1020.79 1021.00 1021.17 1021.33 1021.45 1021.56 1021.67 1021.79 1021.90 1022.03 1022.15 1022.28 1022.40 1022.53 1022.65 1022.79 1022.92 1023.05 1023.16 1023.23 1023.26 1023.25 1023.20
1017.61 1017.81 1017.93 1018.00 1018.06 1018.15 1018.29 1018.48 1018.71 1018.96 1019.21 1019.43 1019.61 1019.76 1019.88 1019.99 1020.10 1020.23 1020.38 1020.56 1020.74 1020.94 1021.13 1021.32 1021.51 1021.68 1021.84 1021.99 1022.12 1022.23 1022.33 1022.41 1022.49 1022.58 1022.69 1022.80 1022.93 1023.06 1023.17 1023.25 1023.29 1023.27 1023.22
1017.48 1017.72 1017.89 1018.01 1018.12 1018.25 1018.41 1018.62 1018.86 1019.12 1019.38 1019.61 1019.81 1019.96 1020.07 1020.16 1020.23 1020.31 1020.40 1020.51 1020.66 1020.83 1021.03 1021.25 1021.49 1021.71 1021.93 1022.11 1022.26 1022.37 1022.45 1022.50 1022.54 1022.59 1022.66 1022.75 1022.86 1022.98 1023.09 1023.18 1023.22 1023.21 1023.17
1017.29 1017.57 1017.79 1017.98 1018.16 1018.33 1018.53 1018.76 1019.01 1019.27 1019.53 1019.76 1019.96 1020.12 1020.23 1020.30 1020.34 1020.36 1020.40 1020.46 1020.55 1020.69 1020.88 1021.11 1021.37 1021.64 1021.89 1022.11 1022.28 1022.40 1022.47 1022.50 1022.51 1022.52 1022.56 1022.62 1022.71 1022.82 1022.92 1023.00 1023.06 1023.07 1023.04
1017.04 1017.35 1017.63 1017.89 1018.13 1018.36 1018.60 1018.84 1019.10 1019.36 1019.61 1019.84 1020.05 1020.21 1020.32 1020.39 1020.41 1020.41 1020.40 1020.41 1020.45 1020.55 1020.70 1020.91 1021.17 1021.44 1021.71 1021.95 1022.15 1022.28 1022.35 1022.37 1022.37 1022.37 1022.38 1022.43 1022.49 1022.58 1022.67 1022.75 1022.81 1022.83 1022.83
1016.74 1017.07 1017.40 1017.71 1018.01 1018.30 1018.58 1018.84 1019.09 1019.35 1019.59 1019.83 1020.04 1020.22 1020.36 1020.45 1020.48 1020.48 1020.44 1020.41 1020.39 1020.43 1020.52 1020.68 1020.89 1021.14 1021.40 1021.65 1021.85 1022.00 1022.08 1022.13 1022.14 1022.14 1022.15 1022.19 1022.24 1022.31 1022.39 1022.45 1022.50 1022.53 1022.53
1016.41 1016.73 1017.08 1017.44 1017.80 1018.13 1018.43 1018.71 1018.97 1019.22 1019.47 1019.71 1019.95 1020.16 1020.35 1020.48 1020.55 1020.57 1020.53 1020.47 1020.40 1020.36 1020.38 1020.45 1020.59 1020.79 1021.00 1021.22 1021.42 1021.58 1021.70 1021.78 1021.82 1021.86 1021.89 1021.93 1021.99 1022.04 1022.10 1022.14 1022.17 1022.18 1022.18
1016.06 1016.36 1016.71 1017.10 1017.49 1017.85 1018.18 1018.48 1018.74 1018.99 1019.25 1019.51 1019.78 1020.05 1020.30 1020.50 1020.63 1020.68 1020.66 1020.58 1020.47 1020.37 1020.29 1020.27 1020.31 1020.41 1020.57 1020.74 1020.92 1021.09 1021.24 1021.36 1021.46 1021.55 1021.62 1021.69 1021.76 1021.81 1021.84 1021.86 1021.85 1021.83 1021.81
1015.72 1015.98 1016.32 1016.72 1017.12 1017.51 1017.86 1018.16 1018.43 1018.69 1018.96 1019.25 1019.56 1019.89 1020.21 1020.48 1020.69 1020.80 1020.81 1020.73 1020.59 1020.43 1020.26 1020.14 1020.08 1020.09 1020.15 1020.27 1020.42 1020.59 1020.76 1020.93 1021.09 1021.24 1021.37 1021.48 1021.57 1021.62 1021.64 1021.62 1021.57 1021.51 1021.44
1015.42 1015.63 1015.96 1016.34 1016.75 1017.14 1017.50 1017.81 1018.08 1018.35 1018.63 1018.95 1019.30 1019.68 1020.06 1020.41 1020.68 1020.85 1020.90 1020.84 1020.70 1020.49 1020.27 1020.07 1019.92 1019.84 1019.82 1019.88 1019.99 1020.15 1020.33 1020.53 1020.75 1020.95 1021.14 1021.30 1021.42 1021.48 1021.49 1021.45 1021.35 1021.24 1021.12
1015.15 1015.33 1015.62 1015.99 1016.39 1016.78 1017.13 1017.44 1017.72 1017.99 1018.29 1018.62 1019.00 1019.41 1019.84 1020.23 1020.56 1020.78 1020.88 1020.85 1020.72 1020.52 1020.28 1020.04 1019.83 1019.69 1019.61 1019.61 1019.68 1019.81 1019.99 1020.21 1020.45 1020.70 1020.94 1021.14 1021.29 1021.38 1021.39 1021.33 1021.20 1021.04 1020.88
1014.92 1015.07 1015.33 1015.67 1016.04 1016.42 1016.76 1017.07 1017.35 1017.63 1017.92 1018.26 1018.64 1019.07 1019.51 1019.92 1020.28 1020.54 1020.68 1020.70 1020.62 1020.45 1020.23 1020.01 1019.80 1019.63 1019.53 1019.49 1019.52 1019.62 1019.78 1019.99 1020.23 1020.50 1020.76 1021.00 1021.18 1021.30 1021.32 1021.26 1021.13 1020.94 1020.74
1014.67 1014.79 1015.02 1015.33 1015.68 1016.04 1016.37 1016.68 1016.96 1017.23 1017.52 1017.85 1018.22 1018.63 1019.05 1019.46 1019.82 1020.10 1020.29 1020.37 1020.35 1020.26 1020.13 1019.97 1019.82 1019.68 1019.59 1019.54 1019.54 1019.60 1019.72 1019.89 1020.11 1020.36 1020.63 1020.88 1021.09 1021.23 1021.29 1021.25 1021.13 1020.95 1020.73
1014.35 1014.44 1014.64 1014.91 1015.24 1015.57 1015.90 1016.21 1016.50 1016.78 1017.07 1017.38 1017.73 1018.11 1018.50 1018.88 1019.22 1019.51 1019.73 1019.87 1019.95 1019.98 1019.96 1019.93 1019.88 1019.83 1019.79 1019.75 1019.74 1019.76 1019.82 1019.93 1020.09 1020.30 1020.55 1020.80 1021.02 1021.20 1021.30 1021.30 1021.22 1021.07 1020.87
1013.90 1013.95 1014.11 1014.34 1014.63 1014.96 1015.29 1015.62 1015.93 1016.24 1016.54 1016.87 1017.20 1017.55 1017.89 1018.23 1018.55 1018.84 1019.08 1019.30 1019.48 1019.64 1019.79 1019.91 1020.01 1020.08 1020.12 1020.13 1020.12 1020.10 1020.10 1020.13 1020.22 1020.36 1020.55 1020.78 1021.01 1021.21 1021.36 1021.42 1021.39 1021.29 1021.14
1013.27 1013.27 1013.37 1013.56 1013.83 1014.15 1014.51 1014.87 1015.24 1015.60 1015.96 1016.31 1016.66 1016.99 1017.32 1017.62 1017.92 1018.20 1018.48 1018.76 1019.05 1019.35 1019.66 1019.96 1020.22 1020.43 1020.58 1020.65 1020.65 1020.61 1020.54 1020.50 1020.49 1020.56 1020.68 1020.87 1021.09 1021.31 1021.49 1021.61 1021.65 1021.62 1021.52
1012.45 1012.38 1012.42 1012.57 1012.82 1013.16 1013.55 1013.99 1014.45 1014.91 1015.36 1015.78 1016.18 1016.54 1016.87 1017.16 1017.45 1017.73 1018.04 1018.38 1018.77 1019.20 1019.66 1020.12 1020.55 1020.90 1021.15 1021.29 1021.32 1021.26 1021.15 1021.03 1020.94 1020.91 1020.97 1021.10 1021.30 1021.52 1021.73 1021.89 1021.99 1022.01 1021.97
1011.52 1011.36 1011.33 1011.44 1011.68 1012.04 1012.51 1013.04 1013.62 1014.22 1014.80 1015.34 1015.83 1016.26 1016.62 1016.95 1017.24 1017.54 1017.87 1018.26 1018.72 1019.26 1019.84 1020.43 1020.99 1021.46 1021.81 1022.02 1022.08 1022.02 1021.87 1021.69 1021.53 1021.42 1021.41 1021.49 1021.64 1021.85 1022.06 1022.24 1022.38 1022.44 1022.43
1010.59 1010.33 1010.23 1010.30 1010.54 1010.95 1011.49 1012.14 1012.86 1013.61 1014.35 1015.05 1015.67 1016.20 1016.64 1017.02 1017.34 1017.67 1018.02 1018.44 1018.95 1019.55 1020.20 1020.88 1021.52 1022.08 1022.51 1022.77 1022.87 1022.81 1022.65 1022.44 1022.22 1022.06 1021.99 1022.01 1022.12 1022.29 1022.48 1022.66 1022.79 1022.86 1022.87
1009.80 1009.45 1009.29 1009.34 1009.58 1010.03 1010.66 1011.42 1012.28 1013.20 1014.10 1014.96 1015.73 1016.39 1016.93 1017.38 1017.76 1018.11 1018.48 1018.92 1019.44 1020.05 1020.73 1021.44 1022.12 1022.73 1023.19 1023.50 1023.62 1023.59 1023.43 1023.21 1022.98 1022.78 1022.67 1022.64 1022.70 1022.83 1022.97 1023.11 1023.21 1023.25 1023.23
1009.31 1008.90 1008.69 1008.72 1008.98 1009.46 1010.16 1011.02 1012.00 1013.05 1014.10 1015.11 1016.02 1016.80 1017.45 1017.98 1018.42 1018.80 1019.19 1019.62 1020.12 1020.71 1021.37 1022.06 1022.73 1023.34 1023.81 1024.14 1024.29 1024.28 1024.15 1023.95 1023.72 1023.53 1023.39 1023.34 1023.35 1023.42 1023.51 1023.59 1023.62 1023.60 1023.52
1009.24 1008.80 1008.58 1008.60 1008.86 1009.37 1010.11 1011.03 1012.09 1013.23 1014.38 1015.50 1016.51 1017.40 1018.15 1018.75 1019.23 1019.65 1020.04 1020.45 1020.91 1021.45 1022.05 1022.68 1023.31 1023.88 1024.34 1024.66 1024.83 1024.86 1024.77 1024.61 1024.42 1024.24 1024.11 1024.04 1024.02 1024.04 1024.06 1024.06 1024.01 1023.91 1023.76
1009.66 1009.24 1009.02 1009.05 1009.32 1009.84 1010.57 1011.50 1012.58 1013.75 1014.94 1016.10 1017.18 1018.13 1018.93 1019.58 1020.11 1020.54 1020.93 1021.31 1021.73 1022.20 1022.72 1023.27 1023.83 1024.33 1024.76 1025.07 1025.25 1025.31 1025.27 1025.16 1025.02 1024.88 1024.78 1024.71 1024.66 1024.64 1024.60 1024.52 1024.39 1024.20 1023.96
1010.58 1010.21 1010.04 1010.08 1010.35 1010.85 1011.55 1012.43 1013.46 1014.58 1015.74 1016.89 1017.96 1018.92 1019.74 1020.42 1020.97 1021.41 1021.79 1022.15 1022.51 1022.91 1023.35 1023.82 1024.28 1024.72 1025.09 1025.38 1025.56 1025.65 1025.66 1025.60 1025.52 1025.43 1025.36 1025.30 1025.25 1025.19 1025.10 1024.96 1024.76 1024.49 1024.16
1011.90 1011.62 1011.51 1011.59 1011.86 1012.31 1012.95 1013.74 1014.66 1015.68 1016.74 1017.80 1018.81 1019.73 1020.53 1021.20 1021.76 1022.20 1022.58 1022.91 1023.24 1023.58 1023.95 1024.33 1024.72 1025.08 1025.40 1025.65 1025.83 1025.93 1025.97 1025.97 1025.94 1025.90 1025.86 1025.81 1025.76 1025.68 1025.56 1025.37 1025.11 1024.78 1024.39
1013.48 1013.33 1013.31 1013.42 1013.68 1014.09 1014.63 1015.30 1016.08 1016.94 1017.86 1018.79 1019.70 1020.54 1021.29 1021.94 1022.48 1022.92 1023.29 1023.62 1023.92 1024.22 1024.53 1024.85 1025.16 1025.46 1025.73 1025.95 1026.11 1026.21 1026.27 1026.30 1026.29 1026.28 1026.27 1026.24 1026.19 1026.10 1025.95 1025.73 1025.44 1025.07 1024.64
Thickness
5744 5743 5743 5742 5741 5740 5740 5739 5739 5738 5738 5737 5735 5734 5733 5731 5729 5728 5726 5725 5724 5722 5721 5719 5717 5715 5714 5712 5711 5710 5709 5708 5707 5706 5705 5705 5704 5703 5702 5701 5700 5699 5698
5744 5743 5742 5741 5740 5740 5740 5739 5738 5738 5737 5736 5735 5734 5732 5730 5729 5727 5726 5725 5723 5722 5720 5719 5717 5715 5713 5711 5710 5709 5708 5707 5706 5705 5704 5703 5702 5701 5701 5700 5699 5697 5696
5743 5742 5742 5741 5740 5740 5739 5738 5738 5737 5736 5736 5734 5733 5732 5730 5729 5728 5726 5725 5723 5721 5720 5719 5717 5715 5713 5711 5710 5709 5708 5707 5706 5705 5704 5702 5701 5700 5699 5698 5697 5696 5695
5743 5742 5741 5741 5741 5740 5739 5737 5736 5735 5734 5734 5733 5733 5732 5730 5729 5728 5726 5725 5723 5722 5720 5719 5717 5716 5714 5712 5710 5709 5708 5707 5706 5705 5703 5702 5701 5700 5699 5698 5697 5695 5694
5743 5742 5742 5742 5741 5740 5738 5738 5735 5734 5732 5731 5731 5731 5731 5730 5729 5728 5727 5725 5724 5723 5721 5720 5718 5716 5715 5713 5712 5710 5709 5708 5706 5705 5703 5702 5701 5700 5699 5698 5696 5695 5694
5742 5742 5741 5741 5741 5739 5737 5736 5734 5734 5732 5731 5731 5730 5730 5730 5729 5729 5728 5727 5725 5723 5722 5721 5719 5718 5716 5715 5713 5712 5710 5709 5707 5706 5704 5703 5701 5700 5699 5698 5696 5695 5694
5742 5741 5741 5741 5740 5738 5736 5736 5734 5732 5730 5730 5726 5723 5725 5728 5729 5729 5729 5727 5726 5725 5723 5722 5720 5719 5717 5716 5715 5713 5712 5710 5708 5706 5705 5703 5702 5701 5699 5698 5697 5696 5695
5741 5741 5741 5740 5739 5737 5736 5735 5734 5730 5729 5729 5724 5718 5715 5718 5724 5729 5728 5727 5727 5726 5724 5723 5721 5720 5718 5717 5716 5715 5713 5711 5709 5707 5705 5704 5702 5701 5700 5698 5697 5696 5695
5740 5740 5740 5739 5738 5737 5735 5734 5733 5730 5726 5727 5727 5721 5712 5709 5716 5723 5727 5728 5727 5726 5725 5724 5722 5720 5719 5718 5716 5715 5713 5712 5709 5707 5705 5704 5702 5701 5700 5698 5697 5696 5694
5740 5739 5739 5738 5737 5736 5735 5735 5734 5732 5728 5724 5725 5726 5724 5721 5715 5713 5720 5724 5726 5725 5725 5724 5722 5721 5719 5717 5716 5715 5713 5711 5709 5707 5705 5703 5701 5700 5698 5697 5696 5695 5693
5738 5738 5738 5737 5736 5735 5735 5735 5733 5732 5730 5726 5724 5723 5722 5722 5720 5714 5711 5717 5721 5724 5725 5724 5722 5721 5719 5717 5716 5714 5712 5710 5708 5706 5703 5701 5700 5698 5696 5695 5694 5692 5691
5736 5737 5737 5736 5736 5735 5735 5734 5733 5731 5729 5728 5726 5724 5722 5719 5717 5715 5711 5712 5714 5719 5722 5722 5721 5719 5718 5716 5714 5713 5710 5708 5706 5703 5701 5699 5697 5695 5693 5692 5690 5689 5687
5734 5735 5736 5736 5735 5735 5734 5733 5732 5730 5728 5726 5725 5723 5723 5722 5721 5718 5714 5711 5711 5713 5716 5718 5718 5718 5716 5714 5712 5710 5708 5705 5703 5700 5698 5695 5693 5691 5689 5687 5686 5684 5682
5736 5736 5736 5735 5734 5734 5733 5732 5730 5728 5727 5725 5724 5723 5721 5721 5721 5720 5716 5711 5706 5706 5708 5710 5713 5713 5712 5710 5709 5706 5704 5701 5699 5696 5693 5691 5688 5686 5684 5682 5680 5678 5676
5737 5736 5735 5734 5733 5732 5731 5729 5727 5726 5724 5723 5722 5720 5719 5719 5720 5719 5718 5715 5707 5699 5698 5703 5705 5708 5707 5705 5703 5701 5699 5696 5693 5691 5688 5685 5683 5680 5678 5675 5673 5671 5669
5736 5735 5733 5732 5731 5730 5728 5726 5724 5723 5721 5720 5719 5717 5716 5715 5715 5715 5715 5713 5711 5704 5696 5698 5699 5700 5701 5700 5697 5694 5692 5690 5687 5684 5681 5678 5676 5673 5670 5668 5665 5663 5661
5734 5733 5732 5730 5728 5727 5726 5723 5721 5719 5717 5716 5715 5713 5711 5711 5710 5710 5709 5708 5706 5703 5694 5692 5693 5693 5692 5691 5689 5686 5684 5681 5679 5676 5673 5671 5668 5665 5662 5659 5656 5654 5651
5731 5730 5729 5727 5726 5725 5723 5720 5717 5716 5714 5712 5711 5709 5707 5707 5705 5705 5703 5702 5700 5698 5693 5686 5684 5683 5682 5682 5680 5677 5674 5672 5670 5667 5664 5661 5659 5655 5652 5649 5646 5643 5641
5728 5727 5726 5724 5723 5722 5720 5718 5715 5712 5710 5708 5707 5705 5703 5702 5699 5698 5697 5695 5694 5693 5689 5683 5677 5674 5672 5672 5669 5667 5664 5661 5659 5656 5653 5651 5648 5645 5642 5638 5634 5632 5629
5725 5724 5723 5721 5720 5718 5716 5714 5711 5708 5705 5704 5703 5701 5699 5697 5695 5693 5691 5689 5686 5683 5680 5675 5669 5665 5662 5661 5658 5654 5651 5649 5647 5644 5642 5639 5636 5633 5629 5626 5622 5619 5616
5723 5721 5719 5717 5716 5714 5712 5709 5706 5703 5700 5698 5696 5694 5693 5692 5690 5687 5685 5681 5679 5674 5670 5664 5659 5654 5650 5648 5645 5643 5639 5635 5633 5631 5628 5625 5622 5619 5615 5612 5609 5605 5602
5717 5716 5714 5712 5710 5709 5707 5704 5701 5697 5694 5691 5688 5685 5684 5682 5680 5678 5676 5674 5671 5667 5661 5656 5649 5644 5638 5636 5634 5633 5627 5624 5619 5617 5614 5610 5608 5603 5600 5597 5594 5591 5588
5712 5710 5708 5706 5704 5702 5701 5698 5696 5692 5687 5683 5680 5678 5676 5672 5670 5667 5664 5661 5658 5656 5653 5647 5640 5634 5629 5626 5624 5620 5615 5611 5605 5602 5600 5594 5592 5588 5586 5582 5579 5575 5572
5707 5705 5702 5700 5697 5694 5693 5690 5687 5683 5678 5674 5671 5669 5666 5661 5659 5656 5652 5647 5643 5640 5638 5635 5629 5623 5619 5616 5613 5609 5604 5598 5592 5588 5585 5578 5575 5572 5570 5567 5563 5560 5557
5701 5697 5694 5691 5688 5685 5683 5681 5678 5673 5668 5663 5660 5658 5655 5652 5648 5646 5642 5635 5630 5625 5622 5620 5615 5610 5607 5604 5601 5596 5590 5584 5576 5571 5568 5563 5559 5555 5553 5550 5547 5544 5541
5692 5689 5685 5682 5679 5676 5674 5672 5669 5665 5658 5653 5648 5646 5644 5641 5637 5634 5630 5624 5618 5612 5609 5605 5601 5597 5593 5589 5586 5581 5576 5568 5561 5555 5552 5547 5542 5538 5535 5533 5530 5527 5524